User: anonymous   Login
Location: Newark
(40.9833°N, 0.0333°W)
Time: 13:35:55
(UTC+00:00)
Language:

Courier 1B Rocket - Orbit

View from above orbital plane
View from above orbital plane
View from above satellite
View from above satellite

Ground track
Ground track

The orbit data is extracted from the following two-line orbital elements,

1    59U 60013B   20303.90378190 +.00000096 +00000-0 +12313-4 0  9998
2    59 028.2486 247.5646 0189020 334.6598 024.4778 13.52979017964799
Epoch (UTC): 29 October 2020 21:41:26
Eccentricity: 0.0189020
inclination: 28.2486°
perigee height: 920 km
apogee height: 1202 km
right ascension of ascending node: 247.5646°
argument of perigee: 334.6598°
revolutions per day: 13.52979017
mean anomaly at epoch: 24.4778°
orbit number at epoch: 96479

The dashed part of the orbit path shows where the satellite is in the earth's shadow,  

DLR